Погода в Сохаге

Египет     26°33′05″N   31°41′53″E
темп.,
°C
ветер,
м/с
пор.,
м/с
влажн.,
%
обл.,
%
осадки,
мм/ч
давл.,
гПа
погр.,
м
25 января, пн
пн2523:00+9сз34520 0.0 102028
02:00+7сз34620 0.0 101931
05:00+6сз34710 0.0 101931
08:00+10сз34600 0.0 1020175
11:00+19сз56310 0.0 1020669
14:00+23ссз77190 0.0 10171118
17:00+21ссз58210 0.0 1018203
20:00+13ссз34370 0.0 101929
26 января, вт
вт2623:00+10сз34510 0.0 102029
02:00+8сз34600 0.0 102031
05:00+7сз34720 0.0 101930
08:00+10сз34560 0.0 1020147
11:00+20сз33230 0.0 1019528
14:00+25зсз22130 0.0 1015936
17:00+20сз23160 0.0 101423
20:00+14сз45302 0.0 101528
27 января, ср
ср2723:00+12сз233887 0.0 101523
02:00+9сз224789 0.0 101423
05:00+9ссз224998 0.0 101323
08:00+15юз013399 0.0 101442
11:00+21юз1320100 0.0 1014764
14:00+26зсз661198 0.0 10121552
17:00+22зсз3413100 0.0 101227
20:00+12сз124153 0.0 101423
28 января, чт
чт2823:00+13сз45220 0.0 101541
02:00+11сз46410 0.0 101684
05:00+8сз46650 0.0 1017104
08:00+10ссз58700 0.0 1019347
11:00+18ссз77350 0.0 10191199
14:00+21ссз78190 0.0 10171470
17:00+18сз710200 0.0 1017606
20:00+11сз45340 0.0 102044
29 января, пт
пт2923:00+8сз44420 0.0 102247
02:00+6сз34520 0.0 102228
05:00+5ссз23610 0.0 102223
08:00+10сз23470 0.0 1023187
11:00+16сз79393 0.0 10231594
14:00+19сз79241 0.0 10211885
17:00+16сз69240 0.0 1021566
20:00+9сз34370 0.0 102327